Find Shiyan 25

NORAD ID: 57047 Int'l Des: 2023-087 Owner: DFHZ Country: CN operational
LEOCIRCULARRETROGRADESSO

Current View

Loading 3D Globe...

About Shiyan 25

Description loading...

Upcoming Passes

Passes for default location (London). Set your location on the main map for personalized predictions.

Altitude History

Loading altitude history...

Two-Line Element Set

1 57047U 23087A 26151.53701002 -.00020417 21415-5 -37068-4 0 9998
2 57047 96.8002 213.6360 0005794 206.2803 153.8184 16.00876683172136
Epoch: May 31, 2026 • Age: 4 hours

Current Status

Altitude 293.3 km
Velocity 7.73 km/s
Sub-Earth Point -52.59°S, 76.01°E
Launch Date Jun 20, 2023
Age 2.9 years
Type other

Technical Details

Classification Payload
Mass 100.00 kg
Dry Mass 100.00 kg
Total Mass 100.00 kg
Length 1.00 m
Diameter 0.50 m
Span 2.00 m
Shape Box + 2 pan
Manufacturer DFHZ
Phase Status In Orbit
Owner/State DFHZ/CN

Most Searched